#timestamp,LO_Frequency,Hit 
1499277615.8,286047000.3,N
1499277635.7,286047002.8,N
1499277655.5,286047001.9,N
1499277675.3,286047001.8,N
1499277695.2,286047002.3,N
1499277715.0,286047002.3,N
1499277715.9,286047002.3,N
1499277735.7,286047002.2,N
1499277755.6,286047001.5,N
1499277775.4,286047002.0,N
1499277795.3,286047002.8,N
1499277815.1,286047002.6,N
1499277816.0,286047002.6,N
1499277835.8,286047001.8,N
1499277855.7,286047002.6,N
1499277875.5,286047002.2,N
1499277895.3,286047001.3,N
1499277915.2,286047002.2,N
1499277935.0,286047002.5,N
1499277935.9,286047002.5,N
1499277955.8,286047002.6,N
1499277975.6,286047001.4,N
1499277995.4,286047003.9,N
1499278015.3,286047004.1,N
1499278035.1,286047004.4,N
1499278055.8,286047004.0,N
1499278075.7,286047004.3,N
1499278095.5,286047001.4,N
1499278115.4,286047001.8,N
1499278135.2,286047004.4,N
1499278155.0,286047002.3,N
1499278155.9,286047002.3,N
1499278175.8,286047001.4,N
1499278195.6,286047001.9,N
1499278215.4,286047002.3,N
1499278235.3,286047002.7,N
1499278255.1,286047002.6,N
1499278275.9,286047002.3,N
1499278295.7,286047002.5,N
1499278315.5,286047001.9,N
1499278335.4,286047001.8,N
1499278355.2,286047004.4,N
1499278375.1,286047002.6,N
1499278376.0,286047002.6,N
1499278395.8,286047000.2,N
1499278415.6,286047002.6,N
1499278435.5,286047002.0,N
1499278455.3,286047004.3,N
1499278475.1,286047001.9,N
1499278495.9,286047003.5,N
1499278515.7,286047004.3,N
1499278535.6,286047001.5,N
1499278555.4,286047004.0,N
1499278575.2,286047003.8,N
1499278595.1,286047002.0,N
1499278596.0,286047002.0,N
1499278615.8,286047003.0,N
1499278635.6,286047004.3,N
1499278655.5,286047003.6,N
1499278675.3,286047001.4,N
1499278695.2,286047002.2,N
1499278715.9,286047001.7,N
1499278735.7,286047004.3,N
1499278755.6,286047004.4,N
1499278775.4,286047001.7,N
1499278795.2,286047001.3,N
1499278815.1,286047001.8,N
1499278816.0,286047001.8,N
1499278835.8,286047004.2,N
1499278855.7,286047004.4,N
1499278875.5,286047003.3,N
1499278895.3,286047004.0,N
1499278915.2,286047004.4,N
1499278935.9,286047003.2,N
1499278955.7,286047004.1,N
1499278975.6,286047004.1,N
1499278995.4,286047004.1,N
1499279015.3,286047001.4,N
1499279035.1,286047004.2,N
1499279036.0,286047004.2,N
1499279055.8,286047003.2,N
1499279075.7,286047004.3,N
1499279095.5,286047004.3,N
1499279115.3,286047001.6,N
1499279135.2,286047001.3,N
1499279155.0,286047004.4,N
1499279155.9,286047004.4,N
1499279175.8,286047001.4,N
1499279195.6,286047003.9,N
1499279215.4,286047003.6,N
1499279235.3,286047003.4,N
1499279255.1,286047003.1,N
1499279256.0,286047003.1,N
1499279275.8,286047001.7,N
1499279295.7,286047003.7,N
1499279315.5,286047003.8,N
1499279335.3,286047005.9,N
1499279355.2,286047003.5,N
1499279375.0,286047003.3,N
1499279375.9,286047003.3,N
1499279395.8,286047005.2,N
1499279415.6,286047005.0,N
1499279435.4,286047005.7,N
1499279455.3,286047005.3,N
1499279475.1,286047004.1,N
1499279525.9,286047005.5,Y
1499279535.8,286047004.4,N
1499279555.6,286046998.5,N
1499279575.5,286046999.1,N
1499279595.3,286046999.2,N
1499279615.1,286046997.0,N
1499279635.9,286046996.6,N
1499279655.7,286046996.6,N
1499279675.5,286046999.3,N
1499279695.4,286047000.7,N
1499279715.2,286047000.4,N
1499279735.1,286047000.7,N
1499279736.0,286047000.7,N
1499279755.8,286047000.5,N
1499279775.6,286046999.9,N
1499279795.5,286047001.1,N
1499279815.3,286047000.3,N
1499279835.1,286046999.9,N
1499279855.9,286047000.4,N
1499279875.7,286047001.1,N
1499279895.6,286047000.2,N
1499279915.4,286046998.8,N
1499279935.2,286047000.2,N
1499279955.1,286047001.0,N
1499279956.0,286047001.0,N
1499279975.8,286047002.1,N
1499279995.6,286046999.8,N
1499280015.5,286046998.3,N
1499280035.3,286046998.2,N
1499280055.2,286047000.8,N
1499280075.9,286046998.6,N
1499280095.7,286046999.3,N
1499280115.6,286046998.6,N
1499280135.4,286047001.8,N
1499280155.2,286046997.7,N
1499280175.1,286046999.5,N
1499280176.0,286046999.5,N
1499280195.8,286047000.6,N
1499280215.7,286047002.8,N
1499280235.5,286047002.4,N
1499280255.3,286047002.1,N
1499280275.2,286047002.8,N
1499280295.0,286046999.8,N
1499280295.9,286046999.8,N
1499280315.7,286047000.3,N
1499280335.6,286047000.6,N
1499280355.4,286047000.4,N
1499280375.3,286046998.2,N
1499280395.1,286047001.0,N
1499280396.0,286047001.0,N
1499280415.8,286047000.9,N
1499280435.7,286047000.5,N
1499280455.5,286046999.4,N
1499280475.3,286046998.7,N
1499280495.2,286046998.5,N
1499280515.0,286047001.2,N
1499280515.9,286047001.2,N
1499280535.8,286047000.5,N
1499280555.6,286046998.6,N
1499280575.4,286046998.4,N
1499280595.3,286047000.3,N
1499280615.1,286047000.2,N
1499280635.9,286047002.7,N
1499280655.7,286047002.7,N
1499280675.5,286047000.4,N
1499280695.4,286047000.1,N
1499280715.2,286047002.4,N
1499280735.0,286046998.2,N
1499280735.9,286046998.2,N
1499280755.8,286046998.8,N
1499280775.6,286046998.6,N
1499280795.5,286046996.6,N
1499280815.3,286046999.4,N
1499280835.1,286046999.4,N
1499280855.9,286046998.1,N
1499280875.7,286047001.2,N
1499280895.5,286046998.3,N
1499280915.4,286047001.0,N
1499280935.2,286047000.9,N
1499280955.0,286047000.0,N
1499280956.0,286047000.0,N
1499280975.8,286047001.1,N
1499280995.6,286047001.1,N
1499281015.5,286047000.2,N
1499281035.3,286047000.9,N
1499281055.1,286047001.1,N
1499281075.9,286047000.7,N
1499281095.7,286046998.1,N
1499281115.6,286047000.6,N
1499281135.4,286046998.1,N
1499281155.2,286046998.9,N
1499281175.1,286047000.8,N
1499281176.0,286047000.8,N
1499281195.8,286047000.5,N
